Location: Eschentzwiller
(47.7125°N, 7.3981°E)
Time: 01:20:19
(UTC+00:00)

Cosmos 2369 - Pass Details

Date: 27 October 2020
Orbit: 840 x 854 km, 71.0° (Epoch: 26 November)

Event Time Altitude Azimuth Distance (km) Brightness Sun altitude
Rises 18:53:41 0° 209° (SSW) 3,411 7.1 -26.3°
Reaches altitude 10° 18:56:08 10° 211° (SSW) 2,477 6.3 -26.7°
Maximum altitude 19:01:50 80° 298° (WNW) 871 3.7 -27.7°
Enters shadow 19:03:12 53° 13° (NNE) 1,036 4.0 -27.9°
